Location: Unspecified
(0.0000°N, 0.0000°E)
Time: 17:59:22
(UTC+00:00)

STARLINK 1068 - Pass Details

Date: 15 January 2020
Orbit: 437 x 439 km, 53.0° (Epoch: 18 January)

Event Time Altitude Azimuth Distance (km) Brightness Sun altitude
Rises 18:23:53 0° 316° (NW) 2,398 7.2 -3.4°
Reaches altitude 10° 18:26:02 10° 310° (NW) 1,532 6.3 -3.9°
Maximum altitude 18:29:21 45° 236° (WSW) 598 4.5 -4.7°
Drops below altitude 10° 18:32:41 10° 162° (SSE) 1,538 6.0 -5.4°
Sets 18:34:48 0° 155° (SSE) 2,387 6.8 -5.9°
